#timestamp,LO_Frequency,Hit,StdDev 
1563476415.5,286046999.0,P
1563476435.4,286046999.1,N
1563476455.2,286046996.6,Y
1563476475.1,286046997.8,P
1563476476.0,286046997.8,N
1563476495.8,286046999.3,N
1563476515.6,286047001.1,N
1563476535.5,286047002.4,N
1563476555.3,286047002.3,N
1563476575.1,286047000.4,N
1563476595.9,286047000.6,N
1563476615.7,286046999.9,N
1563476635.6,286047000.6,N
1563476655.4,286046999.8,N
1563476675.2,286047000.4,N
1563476695.1,286047000.0,N
1563476696.0,286047000.0,N
1563476715.8,286047002.6,N
1563476735.7,286047000.1,N
1563476755.5,286046998.6,N
1563476775.3,286046998.4,N
1563476795.2,286046998.6,N
1563476815.0,286046999.9,N
1563476815.9,286046999.9,N
1563476835.8,286047002.8,N
1563476855.6,286047000.1,N
1563476875.4,286047002.5,N
1563476895.3,286047002.7,N
1563476915.1,286046998.1,N
1563476935.8,286047001.9,N
1563476955.7,286047002.2,N
1563476975.5,286047002.0,N
1563476995.4,286047000.2,N
1563477015.2,286046999.8,N
1563477035.0,286047002.8,N
1563477035.9,286047002.8,N
1563477055.8,286047002.2,N
1563477075.6,286046999.8,N
1563477095.4,286046998.3,N
1563477115.3,286047001.2,N
1563477135.1,286046998.2,N
1563477155.9,286047001.0,N
1563477175.7,286047001.9,N
1563477195.5,286047002.4,N
1563477215.4,286047001.7,N
1563477235.2,286046999.7,N
1563477255.1,286047002.4,N
1563477256.0,286047002.4,N
1563477275.8,286047000.8,N
1563477295.6,286047000.8,N
1563477315.5,286047000.9,N
1563477335.3,286047001.0,N
1563477355.2,286047001.1,N
1563477375.9,286047000.5,N
1563477395.7,286046998.2,N
1563477415.6,286047000.7,N
1563477435.4,286047000.8,N
1563477455.2,286047002.6,N
1563477475.1,286046999.8,N
1563477476.0,286046999.8,N
1563477495.8,286047001.9,N
1563477515.7,286047001.7,N
1563477535.5,286047003.1,N
1563477555.3,286047001.9,N
1563477575.2,286047001.9,N
1563477595.0,286047001.3,N
1563477595.9,286047001.3,N
1563477615.8,286047003.6,N
1563477635.6,286047001.6,N
1563477655.4,286047001.5,N
1563477675.3,286047001.8,N
1563477695.1,286047006.0,Y
1563477715.8,286047004.0,P
1563477735.7,286047003.2,N
1563477755.5,286047003.0,N
1563477775.4,286047005.8,Y
1563477795.2,286047002.6,P
1563477815.0,286047001.6,P
1563477815.9,286047001.6,N
1563477835.8,286047001.7,N
1563477855.6,286047001.6,N
1563477875.5,286047001.5,N
1563477895.3,286047001.5,N
1563477915.1,286047001.8,Y
1563477935.9,286047000.2,P
1563477955.7,286046999.7,N
1563477975.6,286047000.7,N
1563477995.4,286047000.8,N
1563478015.2,286046998.1,N
1563478035.1,286046998.8,N
1563478036.0,286046998.8,N
1563478055.8,286046999.3,N
1563478075.7,286046999.0,N
1563478095.5,286046999.1,N
1563478115.3,286046998.7,N
1563478135.2,286046996.7,Y
1563478155.0,286046997.7,P
1563478155.9,286046997.7,N
1563478175.7,286046997.1,P
1563478195.6,286046998.4,N
1563478215.4,286046999.3,N
1563478235.3,286046999.6,N
1563478255.1,286046997.4,N
1563478256.0,286046997.4,N
1563478275.8,286046997.0,Y
1563478295.7,286046998.6,P
1563478315.5,286046998.3,P
1563478335.4,286046998.9,P
1563478355.2,286046999.1,Y
1563478375.0,286046998.1,P
1563478375.9,286046998.1,P
1563478395.8,286046998.3,P
1563478415.6,286046998.8,Y
1563478435.5,286047001.9,P
1563478455.3,286047001.9,N
1563478475.1,286046999.8,N
1563478495.9,286046999.9,N
1563478515.7,286047000.9,N
1563478535.5,286047000.7,N
1563478555.4,286047002.7,N
1563478575.2,286047000.3,N
1563478595.1,286047002.1,N
1563478596.0,286047002.1,N
1563478615.8,286047002.8,N
1563478635.6,286047001.6,N
1563478655.5,286047001.5,N
1563478675.3,286047001.9,N
1563478695.2,286047002.3,N
1563478715.9,286046998.1,N
1563478735.7,286047000.5,N
1563478755.6,286047000.8,N
1563478775.4,286047001.0,N
1563478795.2,286047002.6,N
1563478815.1,286046999.9,N
1563478816.0,286046999.9,N
1563478835.8,286047002.2,N
1563478855.7,286047001.0,N
1563478875.5,286047000.9,N
1563478895.3,286047001.6,N
1563478915.2,286046999.9,N
1563478935.0,286046998.6,N
1563478935.9,286046998.6,N
1563478955.8,286046998.1,N
1563478975.6,286047001.1,N
1563478995.4,286046999.5,N
1563479015.3,286046998.5,N
1563479035.1,286046999.6,N
1563479055.8,286046997.5,N
1563479075.4,286046997.5,N
1563479095.2,286046997.6,N
1563479115.0,286046995.4,N
1563479115.9,286046995.4,N
1563479135.8,286046997.7,N
1563479155.6,286046997.4,N
1563479175.4,286046999.2,N
1563479195.3,286046999.1,N
1563479215.1,286046997.6,N
1563479235.9,286046995.2,N
1563479255.7,286046995.2,N
1563479275.5,286046997.4,N
1563479295.4,286046995.1,N
1563479315.2,286046995.2,N
1563479335.1,286046997.9,N
1563479336.0,286046997.9,N
1563479355.8,286046997.6,N
1563479375.6,286046996.8,N
1563479395.5,286046997.0,N
1563479415.3,286046999.6,N
1563479435.2,286046999.1,N
1563479455.9,286046998.6,N
1563479475.7,286046996.5,N
1563479495.6,286046996.7,N
1563479515.4,286046994.9,Y
1563479535.3,286047000.7,P
1563479555.1,286047000.1,N
1563479556.0,286047000.1,N
1563479575.8,286047004.2,Y
1563479595.7,286047002.1,P
1563479615.5,286047004.4,P
1563479635.4,286047002.7,N
1563479655.2,286047002.1,N
1563479675.0,286046999.9,N
1563479675.9,286046999.9,N
1563479695.8,286047001.6,N
1563479715.6,286047002.6,N
1563479735.4,286047001.6,N
1563479755.3,286047002.0,N
1563479775.1,286047002.1,N
1563479795.9,286047001.4,N
1563479815.7,286047003.8,N
1563479835.5,286047003.7,N
1563479855.4,286047003.3,N
1563479875.2,286047003.3,N
1563479895.1,286047005.1,Y
1563479896.0,286047005.1,P
1563479915.8,286047002.6,N
1563479935.6,286047002.2,N
1563479955.5,286047001.7,N
1563479975.3,286047002.5,N
1563479995.1,286047000.3,N
